FLOCK 3P'-4 (43122 NORAD) Tracking and Keplerian Element Data

This shows tracking and keplerian element data for the satellite.

Feedback or suggestion? Click here.




ElementValue
Catalog43122
NameFLOCK 3P'-4
Epoch Orbit20481
Epoch Day262.00991013
Epoch Year2021
RAAN334.2264
Inclination97.4078
Eccentricity0.000824
Argument of Perigee237.9762
Mean Anonmoly122.0676
Mean Motion15.24210262
Decay Rate1.207E-05
L11 43122U 18004M 21262.00991013 .00001207 00000-0 52425-4 0 9993
L22 43122 97.4078 334.2264 0008240 237.9762 122.0676 15.24210262204817

Live tracking and technical data element details for FLOCK 3P'-4 (NORAD 43122). FLOCK 3P'-4 can be tracked NOW for your location showing map with azimuth and elevation plus other details from your city location.

Track the satellite on the map from your city or location and see movement details for azimuth, elevation, latitude, longitude, range, height, and movement on the map or in text.







IsCatalogInMostPopularTable: catalog: 43122, numindb: 549
Update: records affected: 1



GetName: 43122 FLOCK 3P'-4

Hit Count: updated at: Sun, 26 Sep 2021 01:06:27 GMT